This is the latest recevied weather packets stored in our database for station/object WX6HNX-5. If no packets are shown the sender has not sent any weather packets the latest 1 day(s).
| Time | Temp. | Humidity | Pressure | Rain* | Wind** | Luminosity | Snow |
|---|---|---|---|---|---|---|---|
| 1778009547 | 18.33° C | 62% | 1015 hPa | 0 mm | 0.45 m/s, 20° | - | - |
| 1778009246 | 17.78° C | 61% | 1015 hPa | 0 mm | 1.34 m/s, 246° | - | - |
| 1778008946 | 17.78° C | 62% | 1015 hPa | 0 mm | 0.45 m/s, 302° | - | - |
| 1778008646 | 17.78° C | 62% | 1015.1 hPa | 0 mm | 0 m/s | - | - |
| 1778008346 | 17.78° C | 62% | 1015.2 hPa | 0 mm | 0.89 m/s, 254° | - | - |
| 1778008046 | 17.78° C | 63% | 1015.1 hPa | 0 mm | 0.45 m/s, 283° | - | - |
| 1778007747 | 17.22° C | 65% | 1015.2 hPa | 0 mm | 0 m/s | - | - |
| 1778007446 | 17.22° C | 65% | 1015.3 hPa | 0 mm | 0.45 m/s, 312° | - | - |
| 1778007146 | 17.22° C | 67% | 1015.3 hPa | 0 mm | 1.79 m/s, 41° | - | - |
| 1778006847 | 16.67° C | 66% | 1015.2 hPa | 0 mm | 1.79 m/s, 312° | - | - |
| 1778006546 | 16.67° C | 67% | 1015.3 hPa | 0 mm | 0.89 m/s, 308° | - | - |
| 1778006246 | 16.67° C | 68% | 1015.3 hPa | 0 mm | 0.45 m/s, 28° | - | - |
| 1778005951 | 16.11° C | 69% | 1015.2 hPa | 0 mm | 0.45 m/s, 323° | - | - |
| 1778005646 | 16.11° C | 70% | 1015.2 hPa | 0 mm | 0 m/s | - | - |
| 1778005346 | 15.56° C | 71% | 1015.2 hPa | 0 mm | 0 m/s | - | - |
| 1778005046 | 15.56° C | 72% | 1015.3 hPa | 0 mm | 1.79 m/s, 352° | - | - |
| 1778004570 | 15.56° C | 73% | 1015.4 hPa | 0 mm | 0.89 m/s, 352° | - | - |
| 1778004269 | 15° C | 75% | 1015.3 hPa | 0 mm | 0 m/s | - | - |
| 1778003970 | 15° C | 76% | 1015.2 hPa | 0 mm | 0.45 m/s, 336° | - | - |
| 1778003669 | 14.44° C | 77% | 1015.2 hPa | 0 mm | 0 m/s | - | - |
| 1778003369 | 14.44° C | 77% | 1015.3 hPa | 0 mm | 1.79 m/s, 274° | - | - |
| 1778003070 | 13.89° C | 79% | 1015.3 hPa | 0 mm | 0 m/s | - | - |
| 1778002770 | 13.89° C | 80% | 1015.2 hPa | 0 mm | 0.89 m/s, 318° | - | - |
| 1778002470 | 13.89° C | 82% | 1015.2 hPa | 0 mm | 0.89 m/s, 324° | - | - |
| 1778002170 | 13.33° C | 82% | 1015.2 hPa | 0 mm | 0.89 m/s, 274° | - | - |
* Rain latest hour (hover to see other rain measurements)
** Current wind speed in m/s (hover to see current wind gust speed)